Location: Martley
(52.2333°N, 2.3667°W)
Time: 05:40:35
(UTC+00:00)

IRIDIUM 104 - Pass Details

Date: 11 December 2019
Orbit: 776 x 779 km, 86.4° (Epoch: 17 January)

Event Time Altitude Azimuth Distance (km) Brightness Sun altitude
Rises 06:50:59 0° 353° (N) 3,276 7.3 -11.0°
Reaches altitude 10° 06:53:21 10° 352° (N) 2,343 6.5 -10.6°
Maximum altitude 06:58:33 70° 270° (W) 830 4.3 -9.9°
Drops below altitude 10° 07:03:44 10° 187° (S) 2,323 7.1 -9.2°
Sets 07:06:04 0° 185° (S) 3,246 7.8 -8.9°
